Location: Saint-Restitut
(44.3351°N, 4.7915°E)
Time: 13:24:08
(UTC+00:00)

Cosmos 1461 - Pass Details

Date: 03 February 2023
Orbit: 492 x 644 km, 65.0° (Epoch: 19 March)

Event Time Altitude Azimuth Distance (km) Brightness Sun altitude
Rises 17:38:24 0° 197° (SSW) 2,716 6.8 -8.6°
Reaches altitude 10° 17:40:36 10° 191° (S) 1,853 5.9 -9.0°
Maximum altitude 17:44:36 46° 118° (ESE) 796 3.3 -9.7°
Drops below altitude 10° 17:48:49 10° 45° (NE) 1,960 5.1 -10.4°
Enters shadow 17:48:51 10° 45° (NE) 1,972 5.1 -10.4°
